Flag for Germany Weather past 2 weeks in Steinfurt, North Rhine-Westphalia, Germany

Now
81 °F

Scattered clouds.


Feels Like: 80 °F
Forecast: 56 / 63 °F
Wind: 8 mph from South

Location: Rheine-Bentlage

Current Time: Jul 7, 2015 at 1:34:31 PM

Latest Report: Jul 7, 2015 at 12:20 PM


Visibility: N/A

Pressure: 29.83 "Hg

Humidity: 39%

Dew point: 54 °F

Location of SteinfurtLocation

Historic Weather in Steinfurt — Graph

°F

Steinfurt temperature yesterday

Maximum temperature yesterday: 75 °F (at 4:20 PM)
Minimum temperature yesterday: 59 °F (at 4:20 AM)
Average temperature yesterday: 67 °F

Past Weeks' High & Low Weather Summary

 TemperatureHumidityPressure
High97 °F (Jul 2, 4:20 PM)100% (Jun 23, 4:20 AM)30.27 "Hg (Jun 23, 4:20 AM)
Low46 °F (Jun 23, 4:20 AM)29% (Jul 1, 3:20 PM)29.68 "Hg (Jun 22, 7:20 PM)
Average69 °F66%30.07 "Hg
* Reported Jun 22 12:20 PM — Jul 7 12:20 PM, Steinfurt, Weather by CustomWeather, © 2015

Note: Actual official high and low records may vary slightly from our data, if they occured in-between our weather recording intervals... More about our weather records

Advertising

Steinfurt weather history for previous 24 hours

 ConditionsComfort  
Time TempWeatherWind HumidityBarometerVisibility
12:20 PM
Tue, Jul 7
81 °FScattered clouds.8 mph39%29.83 "HgN/A
11:20 AM79 °FScattered clouds.7 mph45%29.83 "HgN/A
10:20 AM75 °FScattered clouds.7 mph50%29.86 "HgN/A
9:20 AM72 °FPassing clouds.6 mph53%29.89 "HgN/A
8:20 AM66 °FPassing clouds.5 mph64%29.92 "HgN/A
7:20 AM63 °FPassing clouds.6 mph73%29.92 "HgN/A
6:20 AM59 °FPassing clouds.2 mph77%29.95 "HgN/A
5:20 AM55 °FPassing clouds.1 mph88%29.98 "HgN/A
4:20 AM55 °FCool.No wind88%29.98 "HgN/A
3:20 AM55 °FCool.No wind88%30.01 "HgN/A
2:20 AM55 °FCool.No wind88%30.04 "HgN/A
1:20 AM55 °FCool.No wind88%30.04 "HgN/A
12:20 AM59 °FCool.No wind77%30.07 "HgN/A
11:20 PM
Mon, Jul 6
61 °FCool.No wind72%30.07 "HgN/A
10:20 PM63 °FMild.No wind68%30.07 "HgN/A
9:20 PM68 °FMild.1 mph56%30.07 "HgN/A
8:20 PM73 °FMild.7 mph41%30.09 "HgN/A
7:20 PM75 °FMild.9 mph39%30.09 "HgN/A
6:20 PM75 °FMild.10 mph36%30.09 "HgN/A
5:20 PM75 °FMild.9 mph39%30.12 "HgN/A
4:20 PM75 °FMild.9 mph36%30.12 "HgN/A
3:20 PM73 °FPassing clouds.13 mph41%30.12 "HgN/A
2:20 PM73 °FPassing clouds.14 mph41%30.12 "HgN/A
1:20 PM70 °FScattered clouds.10 mph53%30.15 "HgN/A
Weather by CustomWeather, © 2015

See weather overviewHow to use our weather pages